Weather observations for the past three days for
Junction, Kimble County Airport
Imperial (Metric)
Date Time (cdt) Wind (mph) Vis. (mi.) Weather Sky Cond. Temperature (ºF) Relative Humidity Wind Chill (°F) Heat Index (°F) Pressure Precipitation (in)
Air Dwpt 6 hour altimeter (in) sea level (mb) 1 hr 3 hr 6 hr
Max. Min.
20 09:51 E 12 6.00 Fog/Mist BKN008 OVC014 75 73.9 96% 73 30.16 1017.9
20 08:51 NE 10 5.00 Fog/Mist OVC010 73.9 73 97% 30.14 1017.3
20 07:51 NE 9 7.00 Overcast OVC010 73 73 100% 30.12 1016.6
20 06:51 NE 8 9.00 Light Rain FEW006 BKN039 BKN065 72 72 72 69.1 100% 30.1 1015.9 0.05 0.53
20 05:51 E 8 8.00 Light Rain FEW009 SCT050 BKN075 71.1 71.1 100% 30.1 1015.8 0.05
20 04:51 E 12 5.00 Rain Fog/Mist FEW007 BKN041 OVC050 70 70 100% 30.09 1015.3 0.26
20 03:51 E 9 6.00 Light Rain Fog/Mist SCT009 SCT085 BKN110 69.1 69.1 100% 30.08 1015.2 0.04 0.17
20 02:51 E 14 7.00 Light Rain BKN120 70 70 100% 30.09 1015.4 0.06
20 01:51 E 13 G 22 6.00 Light Rain Fog/Mist SCT110 70 70 100% 30.11 1016.0 0.07
20 00:51 E 13 7.00 Light Rain BKN014 BKN060 OVC110 70 70 79 69.1 100% 30.13 1016.7 0.07 0.24
19 23:51 E 12 5.00 Light Rain Fog/Mist FEW006 OVC013 69.1 69.1 100% 30.14 1017.2 0.11
19 22:51 E 14 G 24 5.00 Light Rain Fog/Mist OVC013 69.1 69.1 100% 30.12 1016.6 0.06
19 21:51 E 18 G 25 10.00 Mostly Cloudy SCT013 BKN021 71.1 68 90% 30.11 1016.0
19 20:51 E 13 10.00 Overcast BKN016 BKN021 OVC032 73 69.1 87% 30.08 1015.2
19 19:51 E 20 G 28 10.00 Overcast BKN026 OVC031 75 68 79% 76 30.06 1014.5
19 18:51 E 18 G 30 10.00 Mostly Cloudy FEW032 BKN050 79 68 84.9 77 69% 81 30.04 1013.6 0.05
19 17:51 E 18 G 26 10.00 Overcast FEW044 OVC060 80.1 71.1 74% 84 30.01 1012.6
19 16:51 E 15 G 24 7.00 Light Rain FEW031 BKN055 OVC090 80.1 73 79% 84 30 1012.3 0.05
19 15:51 E 15 G 26 6.00 Light Rain FEW029 BKN048 OVC060 80.1 72 76% 84 30.01 1012.7
19 14:51 E 17 G 24 9.00 Overcast SCT026 BKN035 OVC050 84 71.1 65% 89 30.02 1012.5
19 13:51 E 15 8.00 Light Rain SCT036 OVC045 82 71.1 69% 86 30.02 1012.9
19 12:51 E 12 10.00 Overcast FEW028 OVC039 82.9 70 84 73 65% 87 30.03 1013.2
19 11:51 E 18 G 25 10.00 Overcast SCT030 OVC040 82.9 70 65% 87 30.04 1013.2
19 10:51 E 13 G 20 10.00 Overcast SCT025 SCT030 OVC038 80.1 70 71% 83 30.02 1012.7
19 09:51 E 7 10.00 Overcast BKN024 OVC032 78.1 69.1 74% 80 30.02 1012.8
19 08:51 E 6 10.00 Overcast FEW017 OVC026 75.9 70 82% 77 30.02 1012.5
19 07:51 E 9 10.00 Overcast FEW022 OVC027 75 70 84% 75 29.99 1011.5
19 06:51 E 3 10.00 Overcast OVC026 73 71.1 80.1 73 94% 29.97 1010.9
19 05:51 SE 8 10.00 Overcast SCT021 OVC032 75 69.1 82% 75 29.95 1010.2
19 04:51 SE 9 10.00 Overcast OVC030 75.9 68 77% 77 29.93 1009.4
19 03:51 SE 12 10.00 Overcast OVC029 75.9 68 77% 77 29.93 1009.4
19 02:51 SE 14 G 23 10.00 Overcast FEW023 FEW028 OVC038 77 69.1 77% 79 29.93 1009.4
19 01:51 SE 13 9.00 Mostly Cloudy FEW028 BKN040 78.1 69.1 74% 80 29.94 1009.7
19 00:51 SE 15 G 24 9.00 Partly Cloudy SCT034 80.1 69.1 90 80.1 69% 83 29.94 1009.7
18 23:51 E 10 10.00 Fair CLR 81 66.9 62% 83 29.92 1009.3
18 22:51 SE 8 10.00 Partly Cloudy SCT049 82.9 68 61% 86 29.9 1008.5
18 21:51 SE 13 10.00 Fair CLR 84 68 59% 87 29.87 1007.4
18 20:51 SE 13 9.00 NULL NULL 87.1 66 50% 89 29.84 1006.4
18 19:51 SE 15 G 26 9.00 Fair CLR 89.1 68 50% 93 29.83 1006.0
18 18:51 SE 20 G 29 9.00 A Few Clouds FEW050 FEW065 90 69.1 95 88 50% 95 29.81 1005.3
18 17:51 SE 21 G 28 8.00 Mostly Cloudy and Breezy BKN065 91.9 69.1 47% 97 29.8 1005.0
18 16:51 S 17 G 29 10.00 Mostly Cloudy BKN060 93.9 68 43% 98 29.8 1004.9
18 15:51 S 15 G 23 10.00 Mostly Cloudy BKN060 93.9 68 43% 98 29.81 1005.2
18 14:51 SE 18 G 29 10.00 Partly Cloudy SCT050 91.9 69.1 47% 97 29.82 1005.7
18 13:51 SE 16 G 26 10.00 Mostly Cloudy BKN049 90 68 48% 94 29.84 1006.2
18 12:51 SE 17 G 28 10.00 Mostly Cloudy BKN044 88 69.1 88 75 54% 92 29.84 1006.5
18 11:51 SE 15 G 24 10.00 Overcast BKN035 OVC048 84.9 70 61% 89 29.87 1007.6
18 10:51 S 14 10.00 Overcast BKN033 OVC043 82 70 67% 86 29.88 1008.0
18 09:51 S 15 G 24 10.00 Partly Cloudy SCT047 82 70 67% 86 29.87 1007.4
18 08:51 S 16 G 22 10.00 Overcast BKN023 OVC043 79 70 74% 82 29.87 1007.4
18 07:51 S 8 10.00 Overcast BKN021 OVC041 75.9 71.1 85% 76 29.85 1006.7
18 06:51 S 8 G 18 10.00 Overcast BKN019 OVC024 75 71.1 81 75 88% 75 29.84 1006.3
18 05:51 S 13 G 18 10.00 Overcast FEW019 OVC039 75.9 70 82% 77 29.82 1005.6
18 04:51 S 20 G 28 10.00 Overcast SCT020 SCT026 OVC040 77 71.1 82% 79 29.81 1005.2
18 03:51 SE 13 9.00 Overcast FEW024 BKN030 OVC037 77 71.1 82% 79 29.81 1005.2
18 02:51 SE 12 G 22 9.00 Overcast FEW027 OVC036 79 70 74% 82 29.83 1006.0
18 01:51 S 12 G 25 9.00 A Few Clouds FEW040 79 70 74% 82 29.83 1006.0
18 00:51 SE 17 G 30 9.00 Fair CLR 81 71.1 93.9 81 72% 85 29.84 1006.2
17 23:51 SE 20 G 31 9.00 Fair CLR 82.9 71.1 67% 88 29.83 1005.9
17 22:51 SE 24 G 37 9.00 Fair and Breezy CLR 84.9 71.1 63% 90 29.81 1005.2
17 21:51 SE 15 G 26 10.00 Fair CLR 87.1 71.1 59% 93 29.78 1004.2
17 20:51 SE 17 G 31 9.00 Fair CLR 91 68 47% 95 29.74 1003.1
17 19:51 SE 20 G 31 9.00 Fair CLR 93 66 41% 96 29.74 1002.8
17 18:51 S 20 G 29 9.00 Mostly Cloudy BKN065 93.9 66.9 96.1 90 41% 98 29.73 1002.6
17 17:51 SE 17 G 25 9.00 A Few Clouds FEW065 95 66.9 40% 99 29.74 1002.8
17 16:51 S 20 G 30 9.00 A Few Clouds FEW065 95 68 41% 100 29.75 1003.4
17 15:51 S 17 G 26 10.00 NULL NULL 95 66.9 40% 99 29.77 1003.8
17 13:51 SE 18 G 29 10.00 A Few Clouds FEW055 91 68 47% 95 29.82 1005.5
17 12:51 SE 20 G 26 10.00 Fair CLR 90 68 90 75.9 48% 94 29.83 1005.7
17 11:51 SE 18 G 31 10.00 NULL NULL 88 68 52% 92 29.84 1006.5
17 10:51 S 16 G 24 10.00 A Few Clouds FEW038 84.9 70 61% 89 29.85 1006.9
Date Time (cdt) Wind (mph) Vis. (mi.) Weather Sky Cond. Air Dwpt Max. Min. Relative Humidity Wind Chill (°F) Heat Index (°F) altimeter (in) sea level (mb) 1 hr 3 hr 6 hr
6 hour
Temperature (ºF) Pressure Precipitation (in)